PCSAT (NO-44)

Last updated on Fri Dec 19 2025 00:03:11 GMT+0000 (Coordinated Universal Time)

1 26931U 01043C 25352.39407045 .00000134 00000+0 81201-4 0 9991 2 26931 67.0515 351.8559 0007418 269.6718 90.3534 14.31857941264562
UTC large
Height (km)
Speed (km/s)
/
Latitude / Longitude
Inclination (degrees)
Orbital Period (minutes)
Azimuth
Elevation
Range (km)
Doppler Factor

Next 0 passes for location: London (51.5072 / 0.1276)

Sorry there are no passes over London.